Date String (YYYY-MM-DD hh:mm:ss) UTC,Instrument flags,absolute air pressure of the measurement (hPa),sample flow rate (lpm),inlet stack bypass flow (lpm),air temperature of the measurement (°C),ambient temperature measured by the external sensor (°C),aerosol sample conditioner tube jacket temperature (°C),OPC LED temperature (°C),internal box temperature (°C),relative humidity of the measurement (%),span deviation,mass concentration of particles derived from Lorenz-Mie calculation of OPC scattering (μg/m³),mass concentration of particles derived from Lorenz-Mie calculation of OPC scattering (μg/m³),mass concentration of particles derived from Lorenz-Mie calculation of OPC scattering (μg/m³)
DateTimeUTC,F1_M11,P_M11,Q1_M11,Q2_M11,T1_M11,T2_M11,T3_M11,T4_M11,T5_M11,U1_M11,ZSPAN_M11,X2_M11,X0_M11,X1_M11
2023-06-04 15:00:00,SystemResetWarning,0834.5,5.00,000.00,030.3,028.7,000.0,038.7,031.9,29.2,0000.0,0002.46,0004.29,0001.99
2023-06-04 15:01:00,SystemResetWarning,0834.5,4.99,000.00,030.3,028.7,000.0,038.7,031.9,29.3,0000.0,0002.47,0004.32,0001.99
2023-06-04 15:02:00,SystemResetWarning,0834.5,5.00,000.00,030.3,028.7,000.0,038.7,031.9,29.3,0000.0,0002.50,0004.38,0002.00
2023-06-04 15:03:00,SystemResetWarning,0834.5,4.99,000.00,030.3,028.7,000.0,038.7,031.9,29.1,0000.0,0002.50,0004.40,0002.00
2023-06-04 15:04:00,SystemResetWarning,0834.5,5.00,000.00,030.3,028.7,000.0,038.7,031.9,29.1,0000.0,0002.50,0004.38,0001.99
2023-06-04 15:05:00,SystemResetWarning,0834.5,5.01,000.00,030.3,028.7,000.0,038.7,031.9,28.9,0000.0,0002.47,0004.29,0001.97
2023-06-04 15:06:00,SystemResetWarning,0834.5,5.00,000.00,030.3,028.7,000.0,038.7,031.9,29.0,0000.0,0002.43,0005.44,0001.92
2023-06-04 15:07:00,SystemResetWarning,0834.5,4.99,000.00,030.3,028.7,000.0,038.7,031.9,28.9,0000.0,0002.37,0005.17,0001.89
2023-06-04 15:08:00,SystemResetWarning,0834.5,4.99,000.00,030.3,028.7,000.0,038.7,031.9,28.8,0000.0,0002.31,0004.60,0001.84
2023-06-04 15:09:00,SystemResetWarning,0834.7,4.99,000.00,030.3,028.7,000.0,038.7,031.9,28.6,0000.0,0002.22,0004.47,0001.80
2023-06-04 15:10:00,SystemResetWarning,0835.0,5.00,000.00,030.3,028.7,000.0,038.7,031.9,28.6,0000.0,0002.14,0004.33,0001.76
2023-06-04 15:11:00,SystemResetWarning,0835.1,5.00,000.00,030.3,028.7,000.0,038.7,031.9,28.5,0000.0,0002.12,0004.33,0001.72
2023-06-04 15:12:00,SystemResetWarning,0835.1,5.00,000.00,030.3,028.7,000.0,038.7,031.9,28.4,0000.0,0002.07,0004.23,0001.68
2023-06-04 15:13:00,SystemResetWarning,0834.6,5.00,000.00,030.3,028.7,000.0,038.7,031.9,28.4,0000.0,0002.02,0004.36,0001.64
2023-06-04 15:14:00,SystemResetWarning,0834.7,4.99,000.00,030.3,028.7,000.0,038.7,031.9,28.3,0000.0,0002.04,0004.56,0001.61
2023-06-04 15:15:00,SystemResetWarning,0834.9,5.00,000.00,030.3,028.7,000.0,038.7,031.9,28.1,0000.0,0002.02,0004.64,0001.59
2023-06-04 15:16:00,SystemResetWarning,0834.8,4.99,000.00,030.3,028.7,000.0,038.7,031.9,28.2,0000.0,0002.03,0004.73,0001.57
2023-06-04 15:17:00,SystemResetWarning,0834.9,5.01,000.00,030.3,028.7,000.0,038.7,031.9,28.1,0000.0,0002.00,0003.55,0001.56
2023-06-04 15:18:00,SystemResetWarning,0834.8,5.01,000.00,030.3,028.7,000.0,038.7,031.9,28.1,0000.0,0002.03,0003.43,0001.55
2023-06-04 15:19:00,SystemResetWarning,0834.7,5.00,000.00,030.3,028.7,000.0,038.7,031.9,28.2,0000.0,0002.06,0003.47,0001.55
2023-06-04 15:20:00,SystemResetWarning,0834.6,4.99,000.00,030.3,028.7,000.0,038.7,031.9,28.1,0000.0,0002.11,0003.58,0001.56
2023-06-04 15:21:00,SystemResetWarning,0834.6,5.00,000.00,030.3,028.7,000.0,038.7,031.9,28.2,0000.0,0002.13,0003.65,0001.57
2023-06-04 15:22:00,SystemResetWarning,0834.6,5.00,000.00,030.3,028.7,000.0,038.7,031.9,28.2,0000.0,0002.15,0003.72,0001.56
2023-06-04 15:23:00,SystemResetWarning,0834.6,5.00,000.00,030.3,028.7,000.0,038.7,031.9,28.1,0000.0,0002.18,0003.86,0001.56
2023-06-04 15:24:00,SystemResetWarning,0834.6,4.99,000.00,030.3,028.7,000.0,038.7,031.9,28.2,0000.0,0002.21,0003.77,0001.57
2023-06-04 15:25:00,SystemResetWarning,0834.6,5.00,000.00,030.3,028.7,000.0,038.7,031.9,28.5,0000.0,0002.18,0003.67,0001.57
2023-06-04 15:26:00,SystemResetWarning,0834.7,5.00,000.00,030.3,028.7,000.0,038.7,031.9,28.4,0000.0,0002.17,0003.87,0001.57
2023-06-04 15:27:00,SystemResetWarning,0834.6,5.00,000.00,030.3,028.7,000.0,038.7,031.9,28.3,0000.0,0002.19,0003.83,0001.57
2023-06-04 15:28:00,SystemResetWarning,0834.9,4.99,000.00,030.3,028.7,000.0,038.7,031.9,28.3,0000.0,0002.20,0003.82,0001.57
2023-06-04 15:29:00,SystemResetWarning,0834.8,5.00,000.00,030.3,028.7,000.0,038.7,031.9,28.5,0000.0,0002.19,0003.94,0001.58
2023-06-04 15:30:00,SystemResetWarning,0834.7,5.00,000.00,030.3,028.7,000.0,038.7,031.9,28.2,0000.0,0002.13,0003.80,0001.57
2023-06-04 15:31:00,SystemResetWarning,0834.8,5.00,000.00,030.3,028.7,000.0,038.7,031.9,28.2,0000.0,0002.08,0003.66,0001.56
2023-06-04 15:32:00,SystemResetWarning,0834.6,5.01,000.00,030.3,028.7,000.0,038.7,031.9,28.3,0000.0,0002.07,0003.74,0001.54
2023-06-04 15:33:00,SystemResetWarning,0834.7,5.01,000.00,030.3,028.7,000.0,038.7,031.9,28.2,0000.0,0002.00,0003.59,0001.51
2023-06-04 15:34:00,SystemResetWarning,0834.6,4.99,000.00,030.3,028.7,000.0,038.7,031.9,28.1,0000.0,0001.96,0003.52,0001.49
2023-06-04 15:35:00,SystemResetWarning,0834.6,4.99,000.00,030.3,028.7,000.0,038.7,031.9,28.1,0000.0,0001.91,0003.42,0001.46
2023-06-04 15:36:00,SystemResetWarning,0834.6,5.00,000.00,030.3,028.7,000.0,038.7,031.9,28.0,0000.0,0001.85,0003.25,0001.43
2023-06-04 15:37:00,SystemResetWarning,0834.7,5.00,000.00,030.3,028.7,000.0,038.7,031.9,28.1,0000.0,0001.81,0002.88,0001.40
2023-06-04 15:38:00,SystemResetWarning,0834.6,5.00,000.00,030.3,028.7,000.0,038.7,031.9,28.0,0000.0,0001.72,0002.73,0001.37
2023-06-04 15:39:00,SystemResetWarning,0834.8,5.00,000.00,030.3,028.7,000.0,038.7,031.9,27.9,0000.0,0001.71,0002.77,0001.35
2023-06-04 15:40:00,SystemResetWarning,0834.6,5.01,000.00,030.3,028.8,000.0,038.7,031.9,27.9,0000.0,0001.65,0002.99,0001.31
2023-06-04 15:41:00,SystemResetWarning,0835.0,5.00,000.00,030.3,028.8,000.0,038.7,031.9,28.1,0000.0,0001.68,0003.08,0001.30
2023-06-04 15:42:00,SystemResetWarning,0835.2,5.00,000.00,030.3,028.7,000.0,038.7,031.9,27.9,0000.0,0001.68,0003.11,0001.27
2023-06-04 15:43:00,SystemResetWarning,0835.2,5.01,000.00,030.3,028.7,000.0,038.7,031.9,27.8,0000.0,0001.65,0002.92,0001.26
2023-06-04 15:44:00,SystemResetWarning,0835.0,5.00,000.00,030.3,028.7,000.0,038.7,031.9,28.4,0000.0,0001.66,0002.95,0001.27
2023-06-04 15:45:00,SystemResetWarning,0834.8,5.00,000.00,030.3,028.7,000.0,038.7,031.9,28.6,0000.0,0001.68,0003.03,0001.28
2023-06-04 15:46:00,SystemResetWarning,0834.8,5.00,000.00,030.3,028.7,000.0,038.7,031.9,28.9,0000.0,0001.74,0003.17,0001.28
2023-06-04 15:47:00,SystemResetWarning,0834.7,4.99,000.00,030.3,028.7,000.0,038.7,031.9,29.0,0000.0,0001.77,0003.19,0001.31
2023-06-04 15:48:00,SystemResetWarning,0834.7,5.00,000.00,030.3,028.7,000.0,038.7,031.9,29.0,0000.0,0001.84,0003.30,0001.33
2023-06-04 15:49:00,SystemResetWarning,0835.1,5.00,000.00,030.3,028.7,000.0,038.7,031.9,29.0,0000.0,0001.89,0003.46,0001.35
2023-06-04 15:50:00,SystemResetWarning,0835.1,5.00,000.00,030.3,028.7,000.0,038.7,031.9,28.8,0000.0,0001.87,0003.43,0001.35
2023-06-04 15:51:00,SystemResetWarning,0835.3,4.99,000.00,030.3,028.7,000.0,038.7,031.9,28.7,0000.0,0001.89,0003.08,0001.36
2023-06-04 15:52:00,SystemResetWarning,0834.7,5.00,000.00,030.3,028.7,000.0,038.7,031.9,28.6,0000.0,0001.84,0002.92,0001.35
2023-06-04 15:53:00,SystemResetWarning,0834.6,5.01,000.00,030.3,028.7,000.0,038.7,031.9,28.3,0000.0,0001.82,0002.88,0001.35
2023-06-04 15:54:00,SystemResetWarning,0834.6,5.00,000.00,030.3,028.8,000.0,038.7,031.9,28.3,0000.0,0001.80,0002.85,0001.36
2023-06-04 15:55:00,SystemResetWarning,0834.7,4.99,000.00,030.3,028.8,000.0,038.7,031.9,28.0,0000.0,0001.81,0003.03,0001.35
2023-06-04 15:56:00,SystemResetWarning,0834.7,4.99,000.00,030.3,028.8,000.0,038.7,031.9,28.1,0000.0,0001.82,0003.04,0001.33
2023-06-04 15:57:00,SystemResetWarning,0834.8,5.00,000.00,030.3,028.7,000.0,038.7,031.9,28.1,0000.0,0001.76,0002.88,0001.30
2023-06-04 15:58:00,SystemResetWarning,0834.7,5.00,000.00,030.3,028.7,000.0,038.7,031.9,28.1,0000.0,0001.70,0002.80,0001.27
2023-06-04 15:59:00,SystemResetWarning,0834.8,5.00,000.00,030.3,028.7,000.0,038.7,031.9,28.4,0000.0,0001.65,0002.70,0001.24
